Regional Weather Roundup
Issued by NWS

Home | Current Version | Previous Version | Text Only | Print | Product List | Glossary Off
Versions: 1 2 3 4 5 6 7 8 9 10 11 12 13 14 15 16 17 18 19 20 21 22 23 24 25 26 27 28 29 30 31 32 33 34 35 36 37 38 39 40 41 42 43 44 45 46 47 48 49 50

000
ASUS45 KBOU 011207
RWRCO

WEATHER ROUNDUP FOR COLORADO
NATIONAL WEATHER SERVICE DENVER/BOULDER CO
500 AM MST WED MAR 01 2017

NOTE: "FAIR" INDICATES FEW OR NO CLOUDS BELOW 12000 FEET WITH NO
SIGNIFICANT WEATHER AND/OR OBSTRUCTIONS TO VISIBILITY.

COZ001>005-013-030-031-011300-
...NORTHWEST COLORADO...

CITY           SKY/WX    TMP DP  RH WIND       PRES   REMARKS
CRAIG          FAIR       8   2  76 W6        30.27R WCI  -2
HAYDEN         FAIR      12   1  62 W9        30.24R WCI   0
MEEKER         FAIR      12   8  84 SE6       30.29R WCI   3
MOUNT WERNER   NOT AVBL
STEAMBOAT SPGS CLOUDY    17   9  72 CALM      30.24R
WALDEN         NOT AVBL
$$

COZ006>008-011-011300-
...WEST CENTRAL VALLEYS...

CITY           SKY/WX    TMP DP  RH WIND       PRES   REMARKS
GRAND JUNCTION FAIR      21  14  74 E7        30.32R WCI  12
MONTROSE       FAIR      14   7  73 SE10      30.35R WCI   1
EAGLE          FAIR       4  -1  80 E9        30.31R WCI -10
RIFLE          CLOUDY    15  10  80 SW3       30.33R
DELTA          FAIR      18  11  75 NE5       30.35R WCI  11
NUCLA          FAIR      16   9  73 SE12      30.34R WCI   3
$$

COZ017>023-064>068-011300-
...SOUTHWEST COLORADO...

CITY           SKY/WX    TMP DP  RH WIND       PRES   REMARKS
DURANGO        FAIR      11   4  73 CALM      30.22R
CORTEZ         FAIR      10   5  80 E8        30.29R WCI  -2
PAGOSA SPRINGS FAIR       1  -3  85 CALM      30.20R
TELLURIDE      FAIR       5  -1  76 SE6       30.21S WCI  -5
WOLF CREEK PAS   N/A      0  -2  92 SW6       30.13R WCI -12
$$

COZ009-010-012-014-032>034-037-058>063-011300-
...CENTRAL COLORADO...

CITY           SKY/WX    TMP DP  RH WIND       PRES   REMARKS
ASPEN          FAIR       0  -5  79 S9        30.23R WCI -15
BUENA VISTA    FAIR      16  -6  36 W12G18    30.14R WCI   3
COPPER MTN     MOCLDY     1  -6  71 MISG      30.00R HAZE
BERTHOUD PASS  LGT SNOW  -8 -17  65 NW38G46   29.90R VSB 3/4 WCI -39
COTTONWOOD PAS FAIR      12  -8  40 W23G33    30.06R WCI  -7
GUNNISON       FAIR       6  -4  63 NW5       30.25R WCI  -3
KREMMLING      CLOUDY    21  10  63 SW9G16    30.22R WCI  11
LEADVILLE      CLOUDY     4  -4  69 N15G24    30.09R WCI -14
MONARCH PASS     N/A     -4  -8  84 W35       30.10R WCI -33
SALIDA         FAIR      22  -7  27 SW21G28   30.21R WCI   6
SUNLIGHT       NOT AVBL
WILKERSON PASS FAIR       1  -9  60 W22G41    29.93R WCI -21
$$

COZ069>075-011300-
...SAN LUIS VALLEY/SANGRE DE CRISTO MOUNTAINS...

CITY           SKY/WX    TMP DP  RH WIND       PRES   REMARKS
ALAMOSA        FAIR      14   5  67 N5        30.20R WCI   6
LA VETA PASS   FAIR      10   0  61 SW28G43   30.01R WCI -11
SAGUACHE       FAIR      12   0  57 NW6       30.21R WCI   3
$$

COZ035-036-038>040-011300-
...NORTHERN COLORADO FRONT RANGE...

CITY           SKY/WX    TMP DP  RH WIND       PRES   REMARKS
DENVER INTL AP FAIR      16   2  54 SE10      30.06R WCI   4
DMNS CITY PARK   N/A     27  -3  27 W3G9      30.07R
AURORA         PTCLDY    19   0  43 SW3       30.07R
FRONT RANGE AP FAIR      21   7  53 CALM      30.08R
ERIE MUNI ARPT NOT AVBL
BOULDER MUN AP FAIR      27   3  36 SE7       30.05R WCI  19
CENTENNIAL     FAIR      26  -4  27 W17G30    30.05S WCI  13
BROOMFIELD     FAIR      30   0  27 W39G52    30.04S WCI  13
FORT COLLINS   FAIR      22   7  52 E8        30.06R WCI  12
LONGMONT       NOT AVBL
$$

COZ041-046-047-076>085-087-088-011300-
...PIKES PEAK/PALMER DIVIDE AND SOUTHERN FOOTHILLS...

CITY           SKY/WX    TMP DP  RH WIND       PRES   REMARKS
COLO. SPRINGS  FAIR      18   0  45 W9        30.05R WCI   7
A. F. ACADEMY  FAIR      23  -7  26 NW8G23    30.04R WCI  14
SCHRIEVER AFB  FAIR      22  -3  32 NW13      30.05R WCI  10
ELLICOTT       FAIR     N/A N/A N/A N6          N/A
FALCON         FAIR      17  -4  39 NW8       30.06R WCI   6
FORT CARSON    FAIR      20   0  40 VRB5      30.06R WCI  14
LIMON          FAIR       5  -2  72 CALM      30.09R
MONUMENT HILL  FAIR      10  -6  48 W8        30.05R WCI  -1
TRINIDAD       FAIR      19  14  81 CALM      30.10R
$$

COZ042>045-048>051-090-091-011300-
...NORTHEAST COLORADO...

CITY           SKY/WX    TMP DP  RH WIND       PRES   REMARKS
GREELEY ARPT   FAIR      23   8  52 N6        30.09R WCI  16
AKRON          FAIR      24   8  50 NW21G31   30.06R WCI   9
BURLINGTON     FAIR      20   8  60 W15       30.08R WCI   6
WRAY           FAIR      28  14  54 NW22G28   30.08R WCI  15
STERLING       FAIR      28  12  50 NW15G21   30.07R WCI  17
HOLYOKE        FAIR      32  12  43 NW18G29   30.07R WCI  20
FORT MORGAN    FAIR      26   8  47 NW22      30.09R WCI  11
$$

COZ086-089-092>099-011300-
...SOUTHEAST COLORADO...

CITY           SKY/WX    TMP DP  RH WIND       PRES   REMARKS
PUEBLO         FAIR      23  11  60 W15       30.10R WCI  10
LA JUNTA       FAIR      19  15  84 NW5       30.13R WCI  12
LAMAR          FAIR      20  17  88 W8        30.13R WCI  10
SPRINGFIELD      N/A     16  12  84 W10       30.12R WCI   4
$$



USA.gov is the U.S. government's official web portal to all federal, state and local government web resources and services.